| time (UTC) | temp F | wind direction | speed MPH | gust MPH | rain 1hr in | rain 24hr in | rain mn in | humidity % | barometer mb |
| 20260502163027 | 61 | 360 | 0.0 | 0.0 | 0.00 | 0.02 | 0.00 | 100 | 1013.9 |
| 20260502161526 | 61 | 360 | 0.0 | 2.0 | 0.00 | 0.02 | 0.00 | 100 | 1014.0 |
| 20260502151523 | 63 | 122 | 0.0 | 3.0 | 0.00 | 0.02 | 0.00 | 100 | 1014.5 |
| 20260502123102 | 59 | 176 | 0.0 | 2.0 | 0.00 | 0.02 | 0.00 | 100 | 1016.2 |
| 20260502121554 | 59 | 360 | 0.0 | 4.0 | 0.00 | 0.02 | 0.00 | 100 | 1016.4 |
| 20260502114548 | 56 | 360 | 0.0 | 4.0 | 0.00 | 0.02 | 0.00 | 100 | 1016.9 |
| 20260502113046 | 55 | 148 | 1.0 | 3.0 | 0.00 | 0.02 | 0.00 | 100 | 1016.8 |
| 20260502111550 | 56 | 115 | 1.0 | 6.0 | 0.00 | 0.02 | 0.00 | 100 | 1017.0 |
| 20260502110044 | 56 | 250 | 0.0 | 3.0 | 0.00 | 0.02 | 0.00 | 100 | 1016.9 |
| 20260502104540 | 54 | 360 | 0.0 | 1.0 | 0.00 | 0.02 | 0.00 | 100 | 1016.8 |
| 20260502103037 | 54 | 284 | 0.0 | 3.0 | 0.00 | 0.02 | 0.00 | 100 | 1017.2 |
| 20260502101535 | 53 | 276 | 0.0 | 1.0 | 0.00 | 0.02 | 0.00 | 100 | 1017.2 |
| 20260502091526 | 51 | 183 | 0.0 | 2.0 | 0.00 | 0.02 | 0.00 | 100 | 1017.5 |
| 20260502071520 | 49 | 108 | 0.0 | 1.0 | 0.00 | 0.02 | 0.00 | 100 | 1017.5 |
| 20260502070020 | 49 | 106 | 0.0 | 3.0 | 0.00 | 0.02 | 0.00 | 100 | 1017.5 |
| 20260502064520 | 49 | 109 | 0.0 | 1.0 | 0.00 | 0.02 | 0.00 | 100 | 1017.5 |
| 20260502063021 | 48 | 98 | 0.0 | 3.0 | 0.00 | 0.02 | 0.00 | 100 | 1017.5 |
| 20260502061517 | 47 | 120 | 0.0 | 2.0 | 0.00 | 0.02 | 0.00 | 100 | 1017.3 |
| 20260502060017 | 47 | 135 | 0.0 | 1.0 | 0.00 | 0.02 | 0.00 | 100 | 1017.4 |
| 20260502054516 | 47 | 200 | 0.0 | 0.0 | 0.00 | 0.02 | 0.00 | 100 | 1017.3 |
| 20260502053016 | 47 | 266 | 0.0 | 0.0 | 0.00 | 0.02 | 0.00 | 100 | 1017.4 |
| 20260502051514 | 46 | 288 | 0.0 | 2.0 | 0.00 | 0.02 | 0.00 | 100 | 1017.4 |
| 20260502050014 | 45 | 299 | 0.0 | 0.0 | 0.00 | 0.02 | 0.00 | 100 | 1017.5 |
| 20260502044514 | 45 | 298 | 0.0 | 0.0 | 0.00 | 0.02 | 0.00 | 100 | 1017.5 |
| 20260502043012 | 45 | 360 | 0.0 | 0.0 | 0.00 | 0.02 | 0.00 | 100 | 1017.5 |
| 20260502041516 | 45 | 360 | 0.0 | 0.0 | 0.00 | 0.02 | 0.00 | 100 | 1017.5 |
| 20260502040008 | 46 | 360 | 0.0 | 0.0 | 0.00 | 0.02 | 0.00 | 100 | 1017.5 |
| 20260502034508 | 46 | 360 | 0.0 | 0.0 | 0.00 | 0.02 | 0.00 | 100 | 1017.5 |
| 20260502033011 | 46 | 360 | 0.0 | 0.0 | 0.00 | 0.02 | 0.00 | 100 | 1017.5 |
| 20260502031506 | 46 | 360 | 0.0 | 0.0 | 0.00 | 0.02 | 0.00 | 100 | 1017.4 |
| 20260502030007 | 46 | 305 | 0.0 | 0.0 | 0.00 | 0.02 | 0.00 | 100 | 1017.5 |
| 20260502024503 | 46 | 306 | 0.0 | 0.0 | 0.00 | 0.02 | 0.00 | 100 | 1017.5 |
| 20260502023002 | 46 | 360 | 0.0 | 0.0 | 0.00 | 0.02 | 0.00 | 100 | 1017.6 |
| 20260502021559 | 46 | 307 | 0.0 | 0.0 | 0.00 | 0.02 | 0.00 | 100 | 1017.7 |
| 20260502020057 | 47 | 360 | 0.0 | 0.0 | 0.00 | 0.02 | 0.00 | 100 | 1017.8 |
| 20260502014555 | 48 | 360 | 0.0 | 0.0 | 0.00 | 0.02 | 0.00 | 100 | 1018.0 |
| 20260502013054 | 48 | 360 | 0.0 | 0.0 | 0.00 | 0.02 | 0.00 | 100 | 1018.1 |
| 20260502011550 | 48 | 360 | 0.0 | 0.0 | 0.00 | 0.02 | 0.00 | 100 | 1018.2 |
| 20260502010050 | 49 | 311 | 0.0 | 0.0 | 0.00 | 0.02 | 0.00 | 100 | 1018.5 |
| 20260502004545 | 49 | 360 | 0.0 | 0.0 | 0.00 | 0.02 | 0.00 | 100 | 1018.6 |
| 20260502003043 | 49 | 360 | 0.0 | 0.0 | 0.00 | 0.02 | 0.00 | 100 | 1018.8 |
| 20260502001542 | 49 | 360 | 0.0 | 0.0 | 0.00 | 0.02 | 0.00 | 100 | 1018.9 |
| 20260502000046 | 50 | 293 | 0.0 | 0.0 | 0.00 | 0.02 | 0.00 | 100 | 1018.8 |
| 20260501234540 | 50 | 360 | 0.0 | 0.0 | 0.00 | 0.02 | 0.00 | 100 | 1018.9 |
| 20260501233139 | 50 | 360 | 0.0 | 0.0 | 0.00 | 0.02 | 0.00 | 100 | 1018.9 |
| 20260501231546 | 50 | 360 | 0.0 | 0.0 | 0.00 | 0.02 | 0.00 | 100 | 1019.0 |
| 20260501230036 | 50 | 314 | 0.0 | 1.0 | 0.00 | 0.02 | 0.02 | 100 | 1019.0 |
| 20260501224545 | 51 | 335 | 0.0 | 2.0 | 0.00 | 0.02 | 0.02 | 100 | 1018.8 |
| 20260501223040 | 51 | 34 | 0.0 | 3.0 | 0.00 | 0.02 | 0.02 | 100 | 1018.9 |
| 20260501221538 | 51 | 213 | 0.0 | 1.0 | 0.00 | 0.02 | 0.02 | 100 | 1019.0 |
| 20260501220033 | 52 | 360 | 0.0 | 2.0 | 0.00 | 0.02 | 0.02 | 100 | 1019.0 |
| 20260501214534 | 52 | 213 | 0.0 | 1.0 | 0.00 | 0.02 | 0.02 | 100 | 1019.1 |
| 20260501213033 | 52 | 214 | 0.0 | 1.0 | 0.00 | 0.02 | 0.02 | 100 | 1019.1 |
| 20260501211532 | 52 | 214 | 0.0 | 1.0 | 0.01 | 0.02 | 0.02 | 100 | 1019.2 |
| 20260501210031 | 52 | 360 | 0.0 | 3.0 | 0.02 | 0.02 | 0.02 | 100 | 1019.1 |
| 20260501204532 | 52 | 251 | 0.0 | 5.0 | 0.02 | 0.02 | 0.02 | 100 | 1019.1 |
| 20260501203029 | 53 | 283 | 0.0 | 3.0 | 0.02 | 0.02 | 0.02 | 100 | 1019.1 |
| 20260501201529 | 53 | 360 | 0.0 | 2.0 | 0.01 | 0.01 | 0.01 | 100 | 1019.1 |
| 20260501200028 | 53 | 347 | 0.0 | 2.0 | 0.00 | 0.00 | 0.00 | 100 | 1019.2 |
| 20260501194529 | 54 | 293 | 0.0 | 0.0 | 0.00 | 0.00 | 0.00 | 100 | 1019.4 |
| 20260501193040 | 54 | 307 | 0.0 | 0.0 | 0.00 | 0.00 | 0.00 | 100 | 1019.3 |
| 20260501191528 | 54 | 211 | 0.0 | 2.0 | 0.00 | 0.00 | 0.00 | 100 | 1019.2 |
| 20260501190030 | 55 | 133 | 0.0 | 3.0 | 0.00 | 0.00 | 0.00 | 100 | 1019.0 |
| 20260501184526 | 56 | 343 | 0.0 | 5.0 | 0.00 | 0.00 | 0.00 | 100 | 1019.0 |
| 20260501183026 | 56 | 42 | 0.0 | 3.0 | 0.00 | 0.00 | 0.00 | 100 | 1018.9 |
| 20260501181529 | 56 | 40 | 0.0 | 3.0 | 0.00 | 0.00 | 0.00 | 100 | 1019.0 |
| 20260501180027 | 57 | 319 | 0.0 | 4.0 | 0.00 | 0.00 | 0.00 | 100 | 1018.9 |
| 20260501174523 | 57 | 360 | 0.0 | 3.0 | 0.00 | 0.00 | 0.00 | 100 | 1019.0 |